Home   Weather   Abidjan   Past weeks

Flag for Cote d'Ivoire (Ivory Coast) Past Weather in Abidjan, Cote d'Ivoire (Ivory Coast) — Yesterday and Last 2 Weeks

Now
79 °F

Passing clouds.


Feels Like: 83 °F
Forecast: 78 / 89 °F
Wind: 3 mph from Northeast

Location: Abidjan Airport

Current Time: Dec 9, 2016 at 8:03:22 am

Latest Report: Dec 9, 2016 at 7:30 am


Visibility: 4 mi

Pressure: 29.89 "Hg

Humidity: 94%

Dew Point: 77 °F

Location of AbidjanLocation

Past Weather in Abidjan — Graph

°F

Abidjan Temperature Yesterday

Maximum temperature yesterday: 90 °F (at 1:00 pm)
Minimum temperature yesterday: 73 °F (at 9:30 pm)
Average temperature yesterday: 83 °F

High & Low Weather Summary for the Past Weeks

 TemperatureHumidityPressure
High90 °F (Nov 24, 11:00 am)100% (Nov 25, 7:00 am)29.95 "Hg (Nov 25, 7:00 am)
Low73 °F (Nov 26, 2:30 am)62% (Nov 29, 3:30 pm)29.74 "Hg (Nov 26, 3:00 pm)
Average83 °F81%29.85 "Hg
* Reported Nov 24 7:00 am — Dec 9 7:00 am, Abidjan, Weather by CustomWeather, © 2016

Note: Actual official high and low records may vary slightly from our data, if they occured in-between our weather recording intervals... More about our weather records

Advertising

Abidjan Weather History for the Previous 24 Hours

Scroll right to see more
 ConditionsComfort  
Time TempWeatherWind HumidityBarometerVisibility
7:00 am
Fri, Dec 9
77 °FPassing clouds.3 mph94%29.89 "Hg4 mi
6:30 am77 °FPassing clouds.3 mph94%29.89 "Hg4 mi
6:00 am77 °FPassing clouds.3 mph94%29.86 "Hg5 mi
5:30 am77 °FPassing clouds.2 mph94%29.86 "Hg5 mi
4:30 am77 °FPassing clouds.2 mph94%29.83 "Hg5 mi
4:00 am77 °FPassing clouds.1 mph94%29.83 "Hg5 mi
3:30 am77 °FPassing clouds.3 mph94%29.83 "Hg4 mi
3:00 am77 °FPassing clouds.1 mph94%29.83 "Hg5 mi
2:30 am77 °FPassing clouds.3 mph94%29.86 "Hg5 mi
2:00 am77 °FPassing clouds.3 mph94%29.86 "Hg5 mi
1:30 am77 °FPassing clouds.2 mph94%29.86 "Hg5 mi
1:00 am77 °FPassing clouds.5 mph94%29.89 "Hg4 mi
12:30 am75 °FThunderstorms. Passing clouds.6 mph100%29.89 "Hg4 mi
12:00 am75 °FThunderstorms. Overcast.1 mph94%29.89 "Hg5 mi
11:30 pm
Thu, Dec 8
75 °FThunderstorms. Overcast.2 mph94%29.89 "Hg5 mi
11:00 pm73 °FThunderstorms. Overcast.5 mph100%29.89 "Hg5 mi
10:30 pm73 °FThunderstorms. Overcast.2 mph100%29.92 "HgN/A
10:00 pm73 °FThunderstorms. Overcast.3 mph100%29.92 "Hg6 mi
9:30 pm73 °FThunderstorms. Overcast.2 mph100%29.95 "Hg1 mi
9:00 pm75 °FThunderstorms. Overcast.17 mph94%29.95 "Hg1 mi
8:30 pm81 °FThunderstorms. Passing clouds.15 mph74%29.92 "Hg6 mi
8:00 pm84 °FThunderstorms. Passing clouds.9 mph79%29.86 "Hg6 mi
7:30 pm84 °FThunderstorms. Passing clouds.9 mph79%29.86 "Hg6 mi
7:00 pm84 °FThunderstorms. Passing clouds.8 mph79%29.86 "Hg6 mi
6:30 pm84 °FPassing clouds.8 mph84%29.83 "Hg6 mi
6:00 pm86 °FScattered clouds.8 mph75%29.80 "Hg6 mi
5:30 pm86 °FScattered clouds.9 mph75%29.83 "Hg6 mi
5:00 pm86 °FPassing clouds.10 mph79%29.80 "Hg6 mi
4:30 pm88 °FPassing clouds.12 mph70%29.80 "Hg6 mi
4:00 pm88 °FPassing clouds.10 mph70%29.80 "Hg6 mi
3:30 pm88 °FPassing clouds.12 mph70%29.80 "Hg6 mi
3:00 pm88 °FPassing clouds.9 mph70%29.80 "Hg6 mi
2:30 pm88 °FScattered clouds.9 mph70%29.80 "Hg6 mi
2:00 pm88 °FScattered clouds.12 mph75%29.80 "Hg6 mi
1:30 pm90 °FPassing clouds.9 mph67%29.83 "Hg6 mi
1:00 pm90 °FPassing clouds.10 mph71%29.86 "Hg6 mi
12:30 pm88 °FScattered clouds.10 mph70%29.86 "Hg6 mi
12:00 pm88 °FScattered clouds.9 mph75%29.86 "Hg6 mi
11:30 am88 °FScattered clouds.10 mph70%29.89 "Hg6 mi
11:00 am88 °FScattered clouds.8 mph70%29.89 "Hg6 mi
10:30 am88 °FScattered clouds.8 mph70%29.92 "Hg5 mi
10:00 am88 °FScattered clouds.8 mph70%29.92 "Hg5 mi
9:30 am86 °FScattered clouds.7 mph75%29.92 "Hg5 mi
9:00 am86 °FScattered clouds.8 mph75%29.92 "Hg5 mi
8:30 am86 °FScattered clouds.6 mph79%29.92 "Hg5 mi
8:00 am86 °FScattered clouds.7 mph79%29.92 "Hg5 mi
Weather by CustomWeather, © 2016

See weather overviewHow to use our weather pages